User: anonymous   Login
Location: Unspecified
(0.0000°N, 0.0000°E)
Time: 13:17:19
(UTC+00:00)
Language:

NNS O-31 - Orbit

View from above orbital plane
View from above orbital plane
View from above satellite
View from above satellite

Ground track
Ground track

The orbit data is extracted from the following two-line orbital elements,

1 19420U 88074B   17086.86114984 +.00000046 +00000-0 +65232-4 0  9998
2 19420 089.9894 019.1012 0093417 315.3253 104.8947 13.42173107399659
Epoch (UTC): 27 March 2017 20:40:03
Eccentricity: 0.0093417
inclination: 89.9894°
perigee height: 1031 km
apogee height: 1171 km
right ascension of ascending node: 19.1012°
argument of perigee: 315.3253°
revolutions per day: 13.42173107
mean anomaly at epoch: 104.8947°
orbit number at epoch: 39965

The dashed part of the orbit path shows where the satellite is in the earth's shadow,  

DLR